Time,TemperatureF,DewpointF,PressureIn,WindDirection,WindDirectionDegrees,WindSpeedMPH,WindSpeedGustMPH,Humidity,HourlyPrecipIn,Conditions,Clouds,dailyrainin,SoftwareType,DateUTC
2013-02-25 00:00:00,38.2,30.6,29.80,SE,135,1.6,4.0,74,0.00,,,0.00,WUHU216HW,2013-02-25 06:00:00,
2013-02-25 00:05:00,38.0,30.4,29.80,SE,135,2.4,3.4,74,0.00,,,0.00,WUHU216HW,2013-02-25 06:05:00,
2013-02-25 00:10:00,38.0,30.4,29.80,ESE,121,1.5,3.1,74,0.00,,,0.00,WUHU216HW,2013-02-25 06:10:00,
2013-02-25 00:15:00,37.8,30.6,29.80,ESE,113,1.1,2.7,75,0.00,,,0.00,WUHU216HW,2013-02-25 06:15:00,
2013-02-25 00:20:00,37.6,30.8,29.80,SE,135,1.1,2.7,76,0.00,,,0.00,WUHU216HW,2013-02-25 06:20:00,
2013-02-25 00:25:00,37.4,30.2,29.80,ESE,115,0.9,1.8,75,0.00,,,0.00,WUHU216HW,2013-02-25 06:25:00,
2013-02-25 00:30:00,37.1,30.3,29.80,ESE,113,0.2,1.6,76,0.00,,,0.00,WUHU216HW,2013-02-25 06:30:00,
2013-02-25 00:35:00,37.1,30.5,29.80,ESE,113,0.6,0.7,77,0.00,,,0.00,WUHU216HW,2013-02-25 06:35:00,
2013-02-25 00:40:00,36.7,29.9,29.80,ESE,118,0.8,1.3,76,0.00,,,0.00,WUHU216HW,2013-02-25 06:40:00,
2013-02-25 00:45:00,36.7,30.2,29.80,ESE,113,1.8,1.8,77,0.00,,,0.00,WUHU216HW,2013-02-25 06:45:00,
2013-02-25 00:50:00,36.5,29.7,29.81,ESE,113,0.1,1.8,76,0.00,,,0.00,WUHU216HW,2013-02-25 06:50:00,
2013-02-25 00:55:00,36.4,29.2,29.81,ESE,113,0.0,0.4,75,0.00,,,0.00,WUHU216HW,2013-02-25 06:55:00,
2013-02-25 01:00:00,36.2,29.6,29.81,NE,45,0.0,0.2,77,0.00,,,0.00,WUHU216HW,2013-02-25 07:00:00,
2013-02-25 01:05:00,36.2,29.4,29.81,ENE,68,0.0,0.2,76,0.00,,,0.00,WUHU216HW,2013-02-25 07:05:00,
2013-02-25 01:10:00,35.8,28.6,29.81,ENE,68,0.0,0.2,75,0.00,,,0.00,WUHU216HW,2013-02-25 07:10:00,
2013-02-25 01:15:00,35.6,28.4,29.81,East,90,0.0,0.2,75,0.00,,,0.00,WUHU216HW,2013-02-25 07:15:00,
2013-02-25 01:20:00,35.3,28.1,29.81,East,90,0.0,0.2,75,0.00,,,0.00,WUHU216HW,2013-02-25 07:20:00,
2013-02-25 01:25:00,35.1,29.2,29.81,ESE,113,0.0,0.0,79,0.00,,,0.00,WUHU216HW,2013-02-25 07:25:00,
2013-02-25 01:30:00,35.3,29.3,29.81,ESE,113,0.2,0.4,79,0.00,,,0.00,WUHU216HW,2013-02-25 07:30:00,
2013-02-25 01:35:00,35.6,29.4,29.81,East,97,0.3,0.4,78,0.00,,,0.00,WUHU216HW,2013-02-25 07:35:00,
2013-02-25 01:40:00,35.8,29.6,29.80,SE,127,0.6,0.7,78,0.00,,,0.00,WUHU216HW,2013-02-25 07:40:00,
2013-02-25 01:45:00,35.8,29.6,29.80,ESE,113,0.9,0.9,78,0.00,,,0.00,WUHU216HW,2013-02-25 07:45:00,
2013-02-25 01:50:00,35.6,29.1,29.81,East,90,0.2,0.9,77,0.00,,,0.00,WUHU216HW,2013-02-25 07:50:00,
2013-02-25 01:55:00,35.5,28.6,29.81,East,90,0.0,0.4,76,0.00,,,0.00,WUHU216HW,2013-02-25 07:55:00,
2013-02-25 02:00:00,34.9,28.1,29.82,North,0,0.0,0.0,76,0.00,,,0.00,WUHU216HW,2013-02-25 08:00:00,
2013-02-25 02:05:00,34.9,28.7,29.81,SE,135,0.9,0.9,78,0.00,,,0.00,WUHU216HW,2013-02-25 08:05:00,
2013-02-25 02:10:00,34.7,28.2,29.81,SE,135,0.0,0.9,77,0.00,,,0.00,WUHU216HW,2013-02-25 08:10:00,
2013-02-25 02:15:00,34.6,28.4,29.81,SE,135,0.2,0.4,78,0.00,,,0.00,WUHU216HW,2013-02-25 08:15:00,
2013-02-25 02:20:00,34.4,28.2,29.80,SE,135,0.1,0.2,78,0.00,,,0.00,WUHU216HW,2013-02-25 08:20:00,
2013-02-25 02:25:00,34.4,28.2,29.81,SE,135,0.0,0.2,78,0.00,,,0.00,WUHU216HW,2013-02-25 08:25:00,
2013-02-25 02:30:00,34.6,28.6,29.80,ESE,113,0.7,0.7,79,0.00,,,0.00,WUHU216HW,2013-02-25 08:30:00,
2013-02-25 02:35:00,34.9,28.7,29.80,ESE,113,1.1,1.1,78,0.00,,,0.00,WUHU216HW,2013-02-25 08:35:00,
2013-02-25 02:40:00,34.9,28.7,29.80,ESE,113,0.4,2.9,78,0.00,,,0.00,WUHU216HW,2013-02-25 08:40:00,
2013-02-25 02:45:00,34.9,28.7,29.80,ESE,120,1.7,2.9,78,0.00,,,0.00,WUHU216HW,2013-02-25 08:45:00,
2013-02-25 02:50:00,34.9,28.7,29.80,SE,135,1.1,2.2,78,0.00,,,0.00,WUHU216HW,2013-02-25 08:50:00,
2013-02-25 02:55:00,34.9,28.7,29.80,ESE,113,0.9,1.1,78,0.00,,,0.00,WUHU216HW,2013-02-25 08:55:00,
2013-02-25 03:00:00,34.9,28.4,29.79,SE,135,0.2,1.8,77,0.00,,,0.00,WUHU216HW,2013-02-25 09:00:00,
2013-02-25 03:05:00,34.9,28.4,29.79,SE,135,0.6,1.8,77,0.00,,,0.00,WUHU216HW,2013-02-25 09:05:00,
2013-02-25 03:10:00,34.9,28.4,29.78,ESE,113,0.4,1.8,77,0.00,,,0.00,WUHU216HW,2013-02-25 09:10:00,
2013-02-25 03:15:00,34.7,28.2,29.78,ESE,113,0.7,1.1,77,0.00,,,0.00,WUHU216HW,2013-02-25 09:15:00,
2013-02-25 03:20:00,34.9,28.4,29.78,SE,135,1.8,1.8,77,0.00,,,0.00,WUHU216HW,2013-02-25 09:20:00,
2013-02-25 03:25:00,34.9,28.1,29.78,ESE,113,1.0,1.8,76,0.00,,,0.00,WUHU216HW,2013-02-25 09:25:00,
2013-02-25 03:30:00,34.9,28.1,29.77,SSE,158,2.9,2.9,76,0.00,,,0.00,WUHU216HW,2013-02-25 09:30:00,
2013-02-25 03:35:00,35.1,27.9,29.77,ESE,113,2.6,3.4,75,0.00,,,0.00,WUHU216HW,2013-02-25 09:35:00,
2013-02-25 03:40:00,35.3,27.7,29.75,ESE,116,2.6,3.4,74,0.00,,,0.00,WUHU216HW,2013-02-25 09:40:00,
2013-02-25 03:45:00,35.6,27.8,29.75,ESE,113,1.8,3.6,73,0.00,,,0.00,WUHU216HW,2013-02-25 09:45:00,
2013-02-25 03:50:00,35.6,27.8,29.76,ESE,113,2.7,3.6,73,0.00,,,0.00,WUHU216HW,2013-02-25 09:50:00,
2013-02-25 03:55:00,35.8,28.0,29.76,SE,135,2.0,3.6,73,0.00,,,0.00,WUHU216HW,2013-02-25 09:55:00,
2013-02-25 04:00:00,35.8,27.6,29.76,ESE,113,2.2,3.6,72,0.00,,,0.00,WUHU216HW,2013-02-25 10:00:00,
2013-02-25 04:05:00,35.6,27.8,29.76,ESE,113,3.4,3.4,73,0.00,,,0.00,WUHU216HW,2013-02-25 10:05:00,
2013-02-25 04:10:00,35.6,27.8,29.76,ESE,122,2.2,3.4,73,0.00,,,0.00,WUHU216HW,2013-02-25 10:10:00,
2013-02-25 04:15:00,35.5,27.6,29.76,East,98,1.0,2.5,73,0.00,,,0.00,WUHU216HW,2013-02-25 10:15:00,
2013-02-25 04:20:00,35.3,27.5,29.76,SE,135,0.4,1.3,73,0.00,,,0.00,WUHU216HW,2013-02-25 10:20:00,
2013-02-25 04:25:00,35.3,27.5,29.76,ESE,121,1.6,2.7,73,0.00,,,0.00,WUHU216HW,2013-02-25 10:25:00,
2013-02-25 04:30:00,35.5,27.6,29.76,SE,135,1.6,2.7,73,0.00,,,0.00,WUHU216HW,2013-02-25 10:30:00,
2013-02-25 04:35:00,35.3,27.5,29.76,ESE,113,1.3,2.0,73,0.00,,,0.00,WUHU216HW,2013-02-25 10:35:00,
2013-02-25 04:40:00,35.1,27.3,29.76,ESE,113,0.9,1.3,73,0.00,,,0.00,WUHU216HW,2013-02-25 10:40:00,
2013-02-25 04:45:00,35.1,27.3,29.75,SE,137,1.0,1.3,73,0.00,,,0.00,WUHU216HW,2013-02-25 10:45:00,
2013-02-25 04:50:00,35.1,27.3,29.75,ESE,113,1.8,1.8,73,0.00,,,0.00,WUHU216HW,2013-02-25 10:50:00,
2013-02-25 04:55:00,35.3,27.1,29.75,ESE,113,1.6,2.2,72,0.00,,,0.00,WUHU216HW,2013-02-25 10:55:00,
2013-02-25 05:00:00,35.3,27.1,29.75,ESE,113,2.7,2.7,72,0.00,,,0.00,WUHU216HW,2013-02-25 11:00:00,
2013-02-25 05:05:00,35.5,27.3,29.75,ESE,113,2.2,2.7,72,0.00,,,0.00,WUHU216HW,2013-02-25 11:05:00,
2013-02-25 05:10:00,35.6,27.2,29.75,SE,135,1.8,2.5,71,0.00,,,0.00,WUHU216HW,2013-02-25 11:10:00,
2013-02-25 05:15:00,35.8,27.4,29.75,SE,135,2.3,2.9,71,0.00,,,0.00,WUHU216HW,2013-02-25 11:15:00,
2013-02-25 05:20:00,36.0,27.6,29.75,East,90,1.8,2.9,71,0.00,,,0.00,WUHU216HW,2013-02-25 11:20:00,
2013-02-25 05:25:00,35.8,27.4,29.75,ENE,68,1.3,2.2,71,0.00,,,0.00,WUHU216HW,2013-02-25 11:25:00,
2013-02-25 05:30:00,36.0,27.2,29.75,SE,135,0.7,2.2,70,0.00,,,0.00,WUHU216HW,2013-02-25 11:30:00,
2013-02-25 05:35:00,36.0,27.2,29.76,East,90,0.4,3.4,70,0.00,,,0.00,WUHU216HW,2013-02-25 11:35:00,
2013-02-25 05:40:00,36.2,27.4,29.75,ENE,68,0.2,3.4,70,0.00,,,0.00,WUHU216HW,2013-02-25 11:40:00,
2013-02-25 05:45:00,36.2,27.0,29.75,ESE,121,0.6,1.1,69,0.00,,,0.00,WUHU216HW,2013-02-25 11:45:00,
2013-02-25 05:50:00,36.2,27.0,29.75,ESE,113,0.4,1.1,69,0.00,,,0.00,WUHU216HW,2013-02-25 11:50:00,
2013-02-25 05:55:00,36.4,27.2,29.75,ESE,113,1.6,1.6,69,0.00,,,0.00,WUHU216HW,2013-02-25 11:55:00,
2013-02-25 06:00:00,36.4,27.2,29.75,ESE,113,0.2,1.6,69,0.00,,,0.00,WUHU216HW,2013-02-25 12:00:00,
2013-02-25 06:05:00,36.5,27.4,29.75,East,93,1.5,2.5,69,0.00,,,0.00,WUHU216HW,2013-02-25 12:05:00,
2013-02-25 06:10:00,36.7,27.2,29.75,ESE,113,1.3,2.5,68,0.00,,,0.00,WUHU216HW,2013-02-25 12:10:00,
2013-02-25 06:15:00,36.7,27.2,29.75,SE,135,2.2,4.5,68,0.00,,,0.00,WUHU216HW,2013-02-25 12:15:00,
2013-02-25 06:20:00,36.9,27.0,29.75,East,84,2.5,4.5,67,0.00,,,0.00,WUHU216HW,2013-02-25 12:20:00,
2013-02-25 06:25:00,37.1,27.2,29.75,ESE,113,2.9,4.0,67,0.00,,,0.00,WUHU216HW,2013-02-25 12:25:00,
2013-02-25 06:30:00,36.9,27.0,29.75,ESE,113,2.0,4.0,67,0.00,,,0.00,WUHU216HW,2013-02-25 12:30:00,
2013-02-25 06:35:00,36.7,26.8,29.74,East,99,1.7,3.6,67,0.00,,,0.00,WUHU216HW,2013-02-25 12:35:00,
2013-02-25 06:40:00,37.1,27.2,29.73,SSE,158,2.7,4.3,67,0.00,,,0.00,WUHU216HW,2013-02-25 12:40:00,
2013-02-25 06:46:00,37.3,26.9,29.73,ESE,118,2.6,4.3,66,0.00,,,0.00,WUHU216HW,2013-02-25 12:46:00,
2013-02-25 06:51:00,37.4,26.7,29.73,ESE,113,3.3,5.6,65,0.00,,,0.00,WUHU216HW,2013-02-25 12:51:00,
2013-02-25 06:56:00,37.4,26.7,29.73,ESE,113,1.8,5.6,65,0.00,,,0.00,WUHU216HW,2013-02-25 12:56:00,
2013-02-25 07:01:00,37.4,27.1,29.73,East,96,2.1,3.6,66,0.00,,,0.00,WUHU216HW,2013-02-25 13:01:00,
2013-02-25 07:06:00,37.6,26.9,29.71,SE,135,4.3,4.7,65,0.00,,,0.00,WUHU216HW,2013-02-25 13:06:00,
2013-02-25 07:11:00,37.8,27.1,29.71,ESE,113,3.9,4.7,65,0.00,,,0.00,WUHU216HW,2013-02-25 13:11:00,
2013-02-25 07:16:00,37.8,27.1,29.71,ESE,113,2.0,4.7,65,0.00,,,0.00,WUHU216HW,2013-02-25 13:16:00,
2013-02-25 07:21:00,37.8,27.1,29.71,East,90,3.4,3.8,65,0.00,,,0.00,WUHU216HW,2013-02-25 13:21:00,
2013-02-25 07:26:00,37.8,27.1,29.72,ESE,113,3.1,6.0,65,0.00,,,0.00,WUHU216HW,2013-02-25 13:26:00,
2013-02-25 07:31:00,37.8,27.1,29.72,SSE,158,6.0,6.3,65,0.00,,,0.00,WUHU216HW,2013-02-25 13:31:00,
2013-02-25 07:36:00,38.0,26.8,29.72,ESE,113,3.1,6.3,64,0.00,,,0.00,WUHU216HW,2013-02-25 13:36:00,
2013-02-25 07:41:00,38.2,27.0,29.73,ESE,113,4.7,5.1,64,0.00,,,0.00,WUHU216HW,2013-02-25 13:41:00,
2013-02-25 07:46:00,38.3,27.5,29.73,ESE,113,2.1,5.1,65,0.00,,,0.00,WUHU216HW,2013-02-25 13:46:00,
2013-02-25 07:51:00,38.5,26.9,29.73,SE,135,4.3,6.3,63,0.00,,,0.00,WUHU216HW,2013-02-25 13:51:00,
2013-02-25 07:56:00,38.9,27.3,29.73,East,90,4.7,6.3,63,0.00,,,0.00,WUHU216HW,2013-02-25 13:56:00,
2013-02-25 08:01:00,39.2,27.6,29.72,SE,134,4.4,4.7,63,0.00,,,0.00,WUHU216HW,2013-02-25 14:01:00,
2013-02-25 08:06:00,39.2,27.6,29.73,ESE,113,5.6,7.4,63,0.00,,,0.00,WUHU216HW,2013-02-25 14:06:00,
2013-02-25 08:12:00,39.6,28.0,29.73,ESE,113,4.1,7.4,63,0.00,,,0.00,WUHU216HW,2013-02-25 14:12:00,
2013-02-25 08:17:00,40.0,27.9,29.73,SE,127,4.7,6.0,62,0.00,,,0.00,WUHU216HW,2013-02-25 14:17:00,
2013-02-25 08:22:00,40.1,28.1,29.73,SE,135,3.8,6.0,62,0.00,,,0.00,WUHU216HW,2013-02-25 14:22:00,
2013-02-25 08:27:00,40.3,28.3,29.72,SE,135,3.1,4.0,62,0.00,,,0.00,WUHU216HW,2013-02-25 14:27:00,
2013-02-25 08:32:00,40.5,28.1,29.72,ESE,113,2.2,6.3,61,0.00,,,0.00,WUHU216HW,2013-02-25 14:32:00,
2013-02-25 08:37:00,40.7,28.3,29.72,ESE,113,4.2,6.3,61,0.00,,,0.00,WUHU216HW,2013-02-25 14:37:00,
2013-02-25 08:42:00,40.9,28.1,29.72,East,90,5.1,6.9,60,0.00,,,0.00,WUHU216HW,2013-02-25 14:42:00,
2013-02-25 08:47:00,41.0,27.8,29.72,ESE,105,2.3,6.9,59,0.00,,,0.00,WUHU216HW,2013-02-25 14:47:00,
2013-02-25 08:52:00,41.2,28.0,29.72,ESE,104,3.3,4.9,59,0.00,,,0.00,WUHU216HW,2013-02-25 14:52:00,
2013-02-25 08:57:00,41.4,28.2,29.72,ESE,113,4.9,5.4,59,0.00,,,0.00,WUHU216HW,2013-02-25 14:57:00,
2013-02-25 09:02:00,41.6,27.5,29.71,East,90,5.4,5.4,57,0.00,,,0.00,WUHU216HW,2013-02-25 15:02:00,
2013-02-25 09:07:00,41.9,27.7,29.70,SE,126,3.5,7.2,57,0.00,,,0.00,WUHU216HW,2013-02-25 15:07:00,
2013-02-25 09:12:00,42.1,27.5,29.69,ESE,113,6.3,7.2,56,0.00,,,0.00,WUHU216HW,2013-02-25 15:12:00,
2013-02-25 09:17:00,42.3,27.6,29.68,ESE,113,4.7,6.3,56,0.00,,,0.00,WUHU216HW,2013-02-25 15:17:00,
2013-02-25 09:22:00,42.5,27.4,29.69,SE,135,7.8,7.8,55,0.00,,,0.00,WUHU216HW,2013-02-25 15:22:00,
2013-02-25 09:27:00,42.8,27.7,29.69,SE,125,3.3,9.2,55,0.00,,,0.00,WUHU216HW,2013-02-25 15:27:00,
2013-02-25 09:32:00,43.0,27.0,29.69,East,100,4.1,9.2,53,0.00,,,0.00,WUHU216HW,2013-02-25 15:32:00,
2013-02-25 09:37:00,43.2,27.2,29.69,SSW,203,6.3,6.3,53,0.00,,,0.00,WUHU216HW,2013-02-25 15:37:00,
2013-02-25 09:42:00,43.4,27.4,29.69,East,90,8.7,8.7,53,0.00,,,0.00,WUHU216HW,2013-02-25 15:42:00,
2013-02-25 09:47:00,43.6,27.6,29.68,SSE,166,4.7,8.7,53,0.00,,,0.00,WUHU216HW,2013-02-25 15:47:00,
2013-02-25 09:52:00,43.7,27.7,29.67,ESE,113,5.4,6.7,53,0.00,,,0.00,WUHU216HW,2013-02-25 15:52:00,
2013-02-25 09:57:00,44.3,28.2,29.68,ESE,107,5.9,6.7,53,0.00,,,0.00,WUHU216HW,2013-02-25 15:57:00,
2013-02-25 10:02:00,44.5,27.9,29.67,SSE,158,4.7,9.6,52,0.00,,,0.00,WUHU216HW,2013-02-25 16:02:00,
2013-02-25 10:07:00,44.6,28.5,29.68,ESE,120,3.2,9.6,53,0.00,,,0.00,WUHU216HW,2013-02-25 16:07:00,
2013-02-25 10:12:00,45.0,28.5,29.68,SSE,161,3.5,5.4,52,0.00,,,0.00,WUHU216HW,2013-02-25 16:12:00,
2013-02-25 10:17:00,45.0,28.5,29.67,ESE,119,2.6,6.9,52,0.00,,,0.00,WUHU216HW,2013-02-25 16:17:00,
2013-02-25 10:22:00,45.0,28.5,29.66,ESE,113,4.9,6.9,52,0.00,,,0.00,WUHU216HW,2013-02-25 16:22:00,
2013-02-25 10:27:00,44.8,28.3,29.67,South,180,6.9,6.9,52,0.00,,,0.00,WUHU216HW,2013-02-25 16:27:00,
2013-02-25 10:32:00,45.0,28.0,29.67,ESE,123,3.5,7.6,51,0.00,,,0.00,WUHU216HW,2013-02-25 16:32:00,
2013-02-25 10:37:00,45.4,27.8,29.66,SE,135,3.3,7.6,50,0.00,,,0.00,WUHU216HW,2013-02-25 16:37:00,
2013-02-25 10:42:00,45.2,27.1,29.66,SSE,158,7.4,7.4,49,0.00,,,0.00,WUHU216HW,2013-02-25 16:42:00,
2013-02-25 10:47:00,45.0,27.0,29.66,South,180,5.6,7.8,49,0.00,,,0.00,WUHU216HW,2013-02-25 16:47:00,
2013-02-25 10:52:00,45.2,28.1,29.65,SE,143,2.8,7.8,51,0.00,,,0.00,WUHU216HW,2013-02-25 16:52:00,
2013-02-25 10:57:00,45.2,27.6,29.64,SSE,158,2.2,4.9,50,0.00,,,0.00,WUHU216HW,2013-02-25 16:57:00,
2013-02-25 11:02:00,45.2,27.1,29.64,NNE,30,3.0,4.0,49,0.00,,,0.00,WUHU216HW,2013-02-25 17:02:00,
2013-02-25 11:07:00,45.2,27.1,29.65,SE,135,5.1,5.1,49,0.00,,,0.00,WUHU216HW,2013-02-25 17:07:00,
2013-02-25 11:12:00,45.2,26.6,29.65,East,95,3.3,5.1,48,0.00,,,0.00,WUHU216HW,2013-02-25 17:12:00,
2013-02-25 11:17:00,45.2,27.1,29.66,ESE,113,2.9,4.7,49,0.00,,,0.00,WUHU216HW,2013-02-25 17:17:00,
2013-02-25 11:22:00,45.2,28.1,29.66,ESE,113,0.7,4.7,51,0.00,,,0.00,WUHU216HW,2013-02-25 17:22:00,
2013-02-25 11:27:00,45.2,27.6,29.66,ESE,114,0.3,1.8,50,0.00,,,0.00,WUHU216HW,2013-02-25 17:27:00,
2013-02-25 11:32:00,45.2,27.6,29.67,ESE,113,0.4,0.7,50,0.00,,,0.00,WUHU216HW,2013-02-25 17:32:00,
2013-02-25 11:37:00,45.2,28.1,29.67,North,0,0.7,1.1,51,0.00,,,0.00,WUHU216HW,2013-02-25 17:37:00,
2013-02-25 11:42:00,45.2,28.1,29.67,North,0,1.1,1.1,51,0.00,,,0.00,WUHU216HW,2013-02-25 17:42:00,
2013-02-25 11:47:00,45.4,28.3,29.66,North,0,1.1,1.1,51,0.00,,,0.00,WUHU216HW,2013-02-25 17:47:00,
2013-02-25 11:52:00,45.2,27.6,29.66,SSE,158,0.0,2.0,50,0.00,,,0.00,WUHU216HW,2013-02-25 17:52:00,
2013-02-25 11:57:00,45.2,28.1,29.65,North,0,1.1,2.5,51,0.00,,,0.00,WUHU216HW,2013-02-25 17:57:00,
2013-02-25 12:02:00,45.2,28.1,29.65,North,0,0.7,2.5,51,0.00,,,0.00,WUHU216HW,2013-02-25 18:02:00,
2013-02-25 12:07:00,45.2,28.1,29.65,North,353,2.2,3.8,51,0.00,,,0.00,WUHU216HW,2013-02-25 18:07:00,
2013-02-25 12:12:00,45.0,28.0,29.65,North,0,2.0,3.8,51,0.00,,,0.00,WUHU216HW,2013-02-25 18:12:00,
2013-02-25 12:17:00,45.0,28.0,29.64,North,0,0.2,3.6,51,0.00,,,0.00,WUHU216HW,2013-02-25 18:17:00,
2013-02-25 12:22:00,45.0,28.0,29.61,East,90,1.1,3.6,51,0.00,,,0.00,WUHU216HW,2013-02-25 18:22:00,
2013-02-25 12:27:00,45.0,28.0,29.61,NNW,338,0.7,1.1,51,0.00,,,0.00,WUHU216HW,2013-02-25 18:27:00,
2013-02-25 12:32:00,45.0,28.0,29.59,NNW,338,1.8,1.8,51,0.00,,,0.00,WUHU216HW,2013-02-25 18:32:00,
2013-02-25 12:37:00,45.0,27.6,29.58,North,0,1.5,3.4,50,0.00,,,0.00,WUHU216HW,2013-02-25 18:37:00,
2013-02-25 12:42:00,45.2,27.6,29.58,NNE,26,2.7,3.4,50,0.00,,,0.00,WUHU216HW,2013-02-25 18:42:00,
2013-02-25 12:47:00,45.4,27.8,29.58,East,90,3.4,3.4,50,0.00,,,0.00,WUHU216HW,2013-02-25 18:47:00,
2013-02-25 12:52:00,45.4,28.3,29.58,North,0,1.1,4.0,51,0.00,,,0.00,WUHU216HW,2013-02-25 18:52:00,
2013-02-25 12:57:00,45.2,27.6,29.58,North,0,6.0,6.0,50,0.00,,,0.00,WUHU216HW,2013-02-25 18:57:00,
2013-02-25 13:02:00,45.2,27.6,29.58,North,0,4.7,6.0,50,0.00,,,0.00,WUHU216HW,2013-02-25 19:02:00,
2013-02-25 13:07:00,45.2,27.6,29.58,North,0,5.1,7.6,50,0.00,,,0.00,WUHU216HW,2013-02-25 19:07:00,
2013-02-25 13:12:00,45.2,27.6,29.58,WSW,248,3.0,7.6,50,0.00,,,0.00,WUHU216HW,2013-02-25 19:12:00,
2013-02-25 13:17:00,45.4,28.3,29.56,NNE,23,2.2,5.8,51,0.00,,,0.00,WUHU216HW,2013-02-25 19:17:00,
2013-02-25 13:22:00,45.4,27.8,29.56,WSW,241,3.7,5.6,50,0.00,,,0.00,WUHU216HW,2013-02-25 19:22:00,
2013-02-25 13:27:00,45.2,28.1,29.55,North,10,4.7,5.6,51,0.00,,,0.00,WUHU216HW,2013-02-25 19:27:00,
2013-02-25 13:32:00,45.4,27.8,29.55,NW,315,1.8,5.4,50,0.00,,,0.00,WUHU216HW,2013-02-25 19:32:00,
2013-02-25 13:37:00,45.5,28.0,29.53,SE,134,2.3,5.1,50,0.00,,,0.00,WUHU216HW,2013-02-25 19:37:00,
2013-02-25 13:42:00,45.4,27.8,29.53,SE,135,4.0,4.0,50,0.00,,,0.00,WUHU216HW,2013-02-25 19:42:00,
2013-02-25 13:47:00,45.4,27.8,29.55,NNE,23,0.9,4.0,50,0.00,,,0.00,WUHU216HW,2013-02-25 19:47:00,
2013-02-25 13:52:00,45.4,27.8,29.55,NNW,338,1.6,3.4,50,0.00,,,0.00,WUHU216HW,2013-02-25 19:52:00,
2013-02-25 13:57:00,45.4,28.3,29.54,North,3,2.8,4.3,51,0.00,,,0.00,WUHU216HW,2013-02-25 19:57:00,
2013-02-25 14:02:00,45.2,28.1,29.54,NE,45,3.1,4.3,51,0.00,,,0.00,WUHU216HW,2013-02-25 20:02:00,
2013-02-25 14:07:00,45.0,28.9,29.54,North,0,2.3,3.1,53,0.00,,,0.00,WUHU216HW,2013-02-25 20:07:00,
2013-02-25 14:12:00,45.0,29.8,29.54,NE,45,2.5,2.9,55,0.00,,,0.00,WUHU216HW,2013-02-25 20:12:00,
2013-02-25 14:17:00,44.6,29.4,29.53,North,0,2.1,4.5,55,0.00,,,0.00,WUHU216HW,2013-02-25 20:17:00,
2013-02-25 14:22:00,44.5,29.7,29.53,North,0,2.1,4.7,56,0.00,,,0.00,WUHU216HW,2013-02-25 20:22:00,
2013-02-25 14:27:00,43.9,30.5,29.54,North,0,4.7,4.7,59,0.00,,,0.00,WUHU216HW,2013-02-25 20:27:00,
2013-02-25 14:32:00,43.4,31.2,29.55,NNW,338,1.8,4.7,62,0.00,,,0.00,WUHU216HW,2013-02-25 20:32:00,
2013-02-25 14:37:00,42.8,30.7,29.56,NNE,23,1.3,3.4,62,0.01,,,0.01,WUHU216HW,2013-02-25 20:37:00,
2013-02-25 14:42:00,42.3,31.3,29.54,North,10,3.4,5.4,65,0.01,,,0.01,WUHU216HW,2013-02-25 20:42:00,
2013-02-25 14:47:00,41.9,31.8,29.53,North,352,3.1,7.6,67,0.01,,,0.01,WUHU216HW,2013-02-25 20:47:00,
2013-02-25 14:52:00,41.8,31.6,29.54,NNW,338,4.0,8.3,67,0.01,,,0.01,WUHU216HW,2013-02-25 20:52:00,
2013-02-25 14:57:00,41.6,31.1,29.57,NNW,335,0.6,8.3,66,0.01,,,0.01,WUHU216HW,2013-02-25 20:57:00,
2013-02-25 15:02:00,41.2,31.1,29.55,North,0,4.0,4.0,67,0.02,,,0.02,WUHU216HW,2013-02-25 21:02:00,
2013-02-25 15:07:00,40.5,31.2,29.54,North,0,5.1,7.8,69,0.02,,,0.02,WUHU216HW,2013-02-25 21:07:00,
2013-02-25 15:12:00,40.0,31.0,29.54,North,0,6.3,7.8,70,0.03,,,0.03,WUHU216HW,2013-02-25 21:12:00,
2013-02-25 15:17:00,39.8,31.4,29.55,NNW,338,4.7,6.3,72,0.03,,,0.03,WUHU216HW,2013-02-25 21:17:00,
2013-02-25 15:22:00,39.6,31.3,29.55,NNW,338,6.3,6.3,72,0.03,,,0.03,WUHU216HW,2013-02-25 21:22:00,
2013-02-25 15:27:00,39.2,31.2,29.54,NNW,347,6.3,7.6,73,0.03,,,0.03,WUHU216HW,2013-02-25 21:27:00,
2013-02-25 15:32:00,39.1,31.4,29.54,NNE,23,8.5,11.2,74,0.03,,,0.03,WUHU216HW,2013-02-25 21:32:00,
2013-02-25 15:37:00,38.3,31.1,29.56,NNE,23,4.0,11.2,75,0.03,,,0.04,WUHU216HW,2013-02-25 21:37:00,
2013-02-25 15:42:00,37.6,30.8,29.54,North,0,6.7,7.6,76,0.04,,,0.05,WUHU216HW,2013-02-25 21:42:00,
2013-02-25 15:47:00,37.3,31.1,29.54,North,356,7.6,12.3,78,0.04,,,0.05,WUHU216HW,2013-02-25 21:47:00,
2013-02-25 15:52:00,37.1,31.5,29.53,North,0,2.0,12.3,80,0.05,,,0.06,WUHU216HW,2013-02-25 21:52:00,
2013-02-25 15:57:00,36.7,31.4,29.52,NNE,32,4.0,7.4,81,0.06,,,0.08,WUHU216HW,2013-02-25 21:57:00,
2013-02-25 16:02:00,36.4,31.1,29.49,North,0,6.7,6.9,81,0.08,,,0.10,WUHU216HW,2013-02-25 22:02:00,
2013-02-25 16:07:00,36.4,32.0,29.49,NE,38,3.3,6.7,84,0.10,,,0.12,WUHU216HW,2013-02-25 22:07:00,
2013-02-25 16:12:00,36.4,32.2,29.50,NNE,23,5.6,5.6,85,0.09,,,0.12,WUHU216HW,2013-02-25 22:12:00,
2013-02-25 16:17:00,36.4,32.5,29.49,NE,35,3.4,5.8,86,0.12,,,0.15,WUHU216HW,2013-02-25 22:17:00,
2013-02-25 16:22:00,36.4,32.5,29.43,NNE,23,3.9,6.0,86,0.14,,,0.17,WUHU216HW,2013-02-25 22:22:00,
2013-02-25 16:27:00,36.4,32.8,29.45,NE,49,2.3,6.0,87,0.16,,,0.19,WUHU216HW,2013-02-25 22:27:00,
2013-02-25 16:32:00,36.7,33.1,29.43,NE,39,4.9,8.3,87,0.17,,,0.20,WUHU216HW,2013-02-25 22:32:00,
2013-02-25 16:37:00,36.9,33.3,29.44,North,349,3.7,8.7,87,0.17,,,0.21,WUHU216HW,2013-02-25 22:37:00,
2013-02-25 16:42:00,36.9,33.3,29.44,ENE,68,7.2,8.7,87,0.16,,,0.21,WUHU216HW,2013-02-25 22:42:00,
2013-02-25 16:47:00,36.9,33.3,29.45,SE,135,3.6,7.2,87,0.16,,,0.21,WUHU216HW,2013-02-25 22:47:00,
2013-02-25 16:52:00,36.9,33.3,29.46,NNE,23,3.4,6.5,87,0.15,,,0.21,WUHU216HW,2013-02-25 22:52:00,
2013-02-25 16:57:00,36.9,33.0,29.46,North,355,5.1,7.2,86,0.14,,,0.22,WUHU216HW,2013-02-25 22:57:00,
2013-02-25 17:02:00,37.1,33.2,29.46,NNE,23,4.9,8.5,86,0.12,,,0.22,WUHU216HW,2013-02-25 23:02:00,
2013-02-25 17:07:00,37.1,33.2,29.45,North,0,4.0,8.5,86,0.10,,,0.22,WUHU216HW,2013-02-25 23:07:00,
2013-02-25 17:12:00,37.1,33.2,29.46,NNE,23,7.6,8.9,86,0.09,,,0.22,WUHU216HW,2013-02-25 23:12:00,
2013-02-25 17:17:00,37.3,33.1,29.45,North,0,5.6,8.9,85,0.07,,,0.22,WUHU216HW,2013-02-25 23:17:00,
2013-02-25 17:22:00,37.4,33.0,29.44,ESE,113,6.0,8.3,84,0.05,,,0.22,WUHU216HW,2013-02-25 23:22:00,
2013-02-25 17:27:00,37.4,33.0,29.43,South,180,5.4,7.8,84,0.02,,,0.22,WUHU216HW,2013-02-25 23:27:00,
2013-02-25 17:32:00,37.6,33.2,29.42,North,0,4.9,6.9,84,0.01,,,0.22,WUHU216HW,2013-02-25 23:32:00,
2013-02-25 17:37:00,37.4,32.8,29.43,NNE,23,8.7,8.7,83,0.01,,,0.22,WUHU216HW,2013-02-25 23:37:00,
2013-02-25 17:42:00,37.4,32.8,29.44,North,0,6.5,8.7,83,0.02,,,0.23,WUHU216HW,2013-02-25 23:42:00,
2013-02-25 17:47:00,37.4,32.8,29.45,ESE,121,1.5,6.5,83,0.02,,,0.23,WUHU216HW,2013-02-25 23:47:00,
2013-02-25 17:52:00,37.4,32.8,29.45,NNE,26,1.5,2.9,83,0.01,,,0.23,WUHU216HW,2013-02-25 23:52:00,
2013-02-25 17:57:00,37.4,32.8,29.45,SE,135,3.6,4.0,83,0.01,,,0.23,WUHU216HW,2013-02-25 23:57:00,
2013-02-25 18:02:00,37.6,32.6,29.46,NNE,23,1.6,4.0,82,0.01,,,0.23,WUHU216HW,2013-02-26 00:02:00,
2013-02-25 18:07:00,37.6,32.6,29.45,SE,144,1.5,4.0,82,0.01,,,0.23,WUHU216HW,2013-02-26 00:07:00,
2013-02-25 18:12:00,37.8,32.5,29.46,ENE,68,2.2,4.0,81,0.01,,,0.23,WUHU216HW,2013-02-26 00:12:00,
2013-02-25 18:17:00,37.8,32.8,29.51,ESE,113,3.1,6.9,82,0.01,,,0.23,WUHU216HW,2013-02-26 00:17:00,
2013-02-25 18:22:00,37.8,33.1,29.52,ESE,113,1.8,6.9,83,0.02,,,0.24,WUHU216HW,2013-02-26 00:22:00,
2013-02-25 18:27:00,37.4,32.8,29.54,SE,141,1.3,4.7,83,0.02,,,0.24,WUHU216HW,2013-02-26 00:27:00,
2013-02-25 18:32:00,37.1,32.7,29.54,SE,131,1.0,6.5,84,0.02,,,0.24,WUHU216HW,2013-02-26 00:32:00,
2013-02-25 18:37:00,36.7,32.3,29.54,NNE,13,2.0,6.5,84,0.01,,,0.24,WUHU216HW,2013-02-26 00:37:00,
2013-02-25 18:42:00,36.5,32.1,29.52,SE,128,0.3,4.0,84,0.02,,,0.25,WUHU216HW,2013-02-26 00:42:00,
2013-02-25 18:47:00,36.2,32.0,29.52,North,0,1.8,1.8,85,0.02,,,0.25,WUHU216HW,2013-02-26 00:47:00,
2013-02-25 18:52:00,35.8,31.4,29.52,North,0,1.6,1.8,84,0.02,,,0.25,WUHU216HW,2013-02-26 00:52:00,
2013-02-25 18:57:00,35.6,31.5,29.52,NNE,23,0.4,1.6,85,0.02,,,0.25,WUHU216HW,2013-02-26 00:57:00,
2013-02-25 19:02:00,35.5,31.1,29.51,North,0,2.0,2.2,84,0.03,,,0.26,WUHU216HW,2013-02-26 01:02:00,
2013-02-25 19:07:00,35.3,30.9,29.51,NW,315,1.1,2.2,84,0.03,,,0.26,WUHU216HW,2013-02-26 01:07:00,
2013-02-25 19:12:00,35.3,31.1,29.51,NNE,14,1.5,2.2,85,0.03,,,0.26,WUHU216HW,2013-02-26 01:12:00,
2013-02-25 19:17:00,35.1,31.0,29.50,NNE,23,1.6,1.8,85,0.04,,,0.27,WUHU216HW,2013-02-26 01:17:00,
2013-02-25 19:22:00,35.1,31.2,29.49,North,355,2.3,3.4,86,0.03,,,0.27,WUHU216HW,2013-02-26 01:22:00,
2013-02-25 19:27:00,35.1,31.5,29.49,NNW,347,1.4,4.7,87,0.03,,,0.27,WUHU216HW,2013-02-26 01:27:00,
2013-02-25 19:32:00,35.1,31.9,29.49,NNW,338,1.3,4.7,88,0.04,,,0.28,WUHU216HW,2013-02-26 01:32:00,
2013-02-25 19:37:00,35.1,31.9,29.49,North,0,0.2,2.5,88,0.04,,,0.28,WUHU216HW,2013-02-26 01:37:00,
2013-02-25 19:42:00,35.1,31.9,29.48,NNE,23,1.3,2.5,88,0.04,,,0.29,WUHU216HW,2013-02-26 01:42:00,
2013-02-25 19:47:00,35.3,32.1,29.48,NE,49,1.3,1.8,88,0.04,,,0.29,WUHU216HW,2013-02-26 01:47:00,
2013-02-25 19:52:00,35.5,32.5,29.48,SW,225,0.4,4.7,89,0.04,,,0.29,WUHU216HW,2013-02-26 01:52:00,
2013-02-25 19:57:00,35.5,32.5,29.48,NE,45,0.7,4.7,89,0.04,,,0.30,WUHU216HW,2013-02-26 01:57:00,
2013-02-25 20:02:00,35.6,32.7,29.50,South,180,0.4,2.2,89,0.04,,,0.30,WUHU216HW,2013-02-26 02:02:00,
2013-02-25 20:07:00,35.6,32.7,29.49,ESE,113,1.3,2.2,89,0.04,,,0.30,WUHU216HW,2013-02-26 02:07:00,
2013-02-25 20:12:00,35.6,32.7,29.49,NNE,17,1.8,2.7,89,0.05,,,0.31,WUHU216HW,2013-02-26 02:12:00,
2013-02-25 20:17:00,35.6,32.7,29.48,SSW,203,1.8,2.7,89,0.04,,,0.31,WUHU216HW,2013-02-26 02:17:00,
2013-02-25 20:22:00,35.5,32.5,29.47,ENE,70,2.0,2.2,89,0.05,,,0.32,WUHU216HW,2013-02-26 02:22:00,
2013-02-25 20:27:00,35.1,32.1,29.47,North,9,4.2,7.2,89,0.04,,,0.32,WUHU216HW,2013-02-26 02:27:00,
2013-02-25 20:32:00,34.9,32.0,29.46,ENE,68,1.8,7.2,89,0.05,,,0.33,WUHU216HW,2013-02-26 02:32:00,
2013-02-25 20:37:00,34.6,31.6,29.45,ESE,113,1.3,2.5,89,0.05,,,0.33,WUHU216HW,2013-02-26 02:37:00,
2013-02-25 20:42:00,34.4,31.4,29.45,North,0,2.9,2.9,89,0.05,,,0.34,WUHU216HW,2013-02-26 02:42:00,
2013-02-25 20:47:00,34.2,31.0,29.44,North,0,6.0,6.0,88,0.05,,,0.34,WUHU216HW,2013-02-26 02:47:00,
2013-02-25 20:52:00,34.2,31.2,29.42,NNE,18,2.3,6.0,89,0.04,,,0.34,WUHU216HW,2013-02-26 02:52:00,
2013-02-25 20:57:00,34.2,31.2,29.42,NNE,23,2.5,4.0,89,0.04,,,0.34,WUHU216HW,2013-02-26 02:57:00,
2013-02-25 21:02:00,34.2,31.5,29.42,North,0,2.7,3.6,90,0.05,,,0.35,WUHU216HW,2013-02-26 03:02:00,
2013-02-25 21:07:00,34.2,31.5,29.41,NNW,338,3.1,3.8,90,0.05,,,0.35,WUHU216HW,2013-02-26 03:07:00,
2013-02-25 21:12:00,34.4,31.7,29.41,North,0,1.8,3.8,90,0.04,,,0.35,WUHU216HW,2013-02-26 03:12:00,
2013-02-25 21:17:00,34.6,31.9,29.40,North,0,4.0,4.7,90,0.05,,,0.36,WUHU216HW,2013-02-26 03:17:00,
2013-02-25 21:22:00,34.6,31.9,29.39,NE,45,4.5,4.7,90,0.04,,,0.36,WUHU216HW,2013-02-26 03:22:00,
2013-02-25 21:27:00,34.7,31.8,29.38,North,0,1.6,5.6,89,0.04,,,0.36,WUHU216HW,2013-02-26 03:27:00,
2013-02-25 21:32:00,34.7,31.8,29.36,NNE,23,10.1,10.1,89,0.03,,,0.36,WUHU216HW,2013-02-26 03:32:00,
2013-02-25 21:37:00,34.7,31.8,29.36,NNW,346,4.6,10.1,89,0.04,,,0.37,WUHU216HW,2013-02-26 03:37:00,
2013-02-25 21:42:00,34.6,31.6,29.36,NNW,338,2.7,6.3,89,0.03,,,0.37,WUHU216HW,2013-02-26 03:42:00,
2013-02-25 21:47:00,34.6,31.6,29.36,North,0,4.5,4.9,89,0.03,,,0.37,WUHU216HW,2013-02-26 03:47:00,
2013-02-25 21:52:00,34.6,31.6,29.36,ESE,113,5.4,5.4,89,0.03,,,0.37,WUHU216HW,2013-02-26 03:52:00,
2013-02-25 21:57:00,34.6,31.6,29.36,ESE,113,2.3,5.4,89,0.03,,,0.37,WUHU216HW,2013-02-26 03:57:00,
2013-02-25 22:02:00,34.6,31.6,29.37,NNW,338,3.4,3.4,89,0.02,,,0.37,WUHU216HW,2013-02-26 04:02:00,
2013-02-25 22:07:00,34.6,31.6,29.37,SW,225,4.0,5.8,89,0.02,,,0.37,WUHU216HW,2013-02-26 04:07:00,
2013-02-25 22:12:00,34.6,31.6,29.37,SE,135,0.9,6.3,89,0.03,,,0.38,WUHU216HW,2013-02-26 04:12:00,
2013-02-25 22:17:00,34.7,31.8,29.37,NE,45,2.7,6.3,89,0.02,,,0.38,WUHU216HW,2013-02-26 04:17:00,
2013-02-25 22:22:00,34.7,31.8,29.37,East,95,1.6,6.5,89,0.02,,,0.38,WUHU216HW,2013-02-26 04:22:00,
2013-02-25 22:27:00,34.7,31.8,29.36,NNE,12,1.7,6.5,89,0.02,,,0.38,WUHU216HW,2013-02-26 04:27:00,
2013-02-25 22:32:00,34.7,31.8,29.36,North,0,3.1,5.4,89,0.01,,,0.38,WUHU216HW,2013-02-26 04:32:00,
2013-02-25 22:37:00,34.7,31.8,29.36,NNW,338,2.9,5.4,89,0.01,,,0.38,WUHU216HW,2013-02-26 04:37:00,
2013-02-25 22:42:00,34.9,32.0,29.35,ENE,68,3.6,5.6,89,0.01,,,0.38,WUHU216HW,2013-02-26 04:42:00,
2013-02-25 22:47:00,34.9,31.7,29.34,NNE,23,3.4,5.6,88,0.01,,,0.38,WUHU216HW,2013-02-26 04:47:00,
2013-02-25 22:52:00,34.7,31.8,29.35,ESE,113,3.4,5.4,89,0.01,,,0.38,WUHU216HW,2013-02-26 04:52:00,
2013-02-25 22:57:00,34.7,31.8,29.35,NNE,15,1.3,4.0,89,0.01,,,0.38,WUHU216HW,2013-02-26 04:57:00,
2013-02-25 23:00:00,34.7,31.8,29.35,WNW,293,2.9,4.5,89,0.01,,,0.38,WUHU216HW,2013-02-26 05:00:00,
2013-02-25 23:05:00,34.7,31.5,29.35,North,0,1.1,4.7,88,0.01,,,0.38,WUHU216HW,2013-02-26 05:05:00,
2013-02-25 23:10:00,34.9,31.7,29.35,ENE,68,2.2,4.7,88,0.00,,,0.38,WUHU216HW,2013-02-26 05:10:00,
2013-02-25 23:15:00,34.7,31.5,29.34,North,0,2.9,3.6,88,0.01,,,0.39,WUHU216HW,2013-02-26 05:15:00,
2013-02-25 23:20:00,34.9,31.7,29.34,North,0,2.3,3.6,88,0.01,,,0.39,WUHU216HW,2013-02-26 05:20:00,
2013-02-25 23:25:00,34.7,31.5,29.34,North,0,4.9,4.9,88,0.01,,,0.39,WUHU216HW,2013-02-26 05:25:00,
2013-02-25 23:30:00,34.7,31.5,29.33,SSW,203,2.0,4.9,88,0.01,,,0.39,WUHU216HW,2013-02-26 05:30:00,
2013-02-25 23:35:00,34.7,31.5,29.33,East,90,6.9,6.9,88,0.01,,,0.39,WUHU216HW,2013-02-26 05:35:00,
2013-02-25 23:40:00,34.9,32.0,29.33,North,0,2.0,6.9,89,0.02,,,0.40,WUHU216HW,2013-02-26 05:40:00,
2013-02-25 23:45:00,34.7,31.5,29.33,NE,45,1.8,5.4,88,0.02,,,0.40,WUHU216HW,2013-02-26 05:45:00,
2013-02-25 23:50:00,34.9,31.7,29.33,NNE,23,4.0,5.1,88,0.02,,,0.40,WUHU216HW,2013-02-26 05:50:00,
2013-02-25 23:55:00,34.9,31.7,29.32,NNW,338,6.7,6.7,88,0.02,,,0.40,WUHU216HW,2013-02-26 05:55:00,